Time,TemperatureF,DewpointF,PressureIn,WindDirection,WindDirectionDegrees,WindSpeedMPH,WindSpeedGustMPH,Humidity,HourlyPrecipIn,Conditions,Clouds,dailyrainin,SoftwareType,DateUTC
2013-04-10 00:01:00,57.9,48.0,29.99,South,183,1.0,4.0,70,0.00,,,0.00,weatherlink.com 1.10,2013-04-09 21:01:00,
2013-04-10 00:16:00,57.8,48.0,29.99,SW,215,1.0,4.0,70,0.00,,,0.00,weatherlink.com 1.10,2013-04-09 21:16:00,
2013-04-10 00:31:00,57.8,48.0,29.99,South,190,0.0,4.0,70,0.00,,,0.00,weatherlink.com 1.10,2013-04-09 21:31:00,
2013-04-10 00:46:00,56.9,48.0,29.98,South,190,0.0,2.0,73,0.00,,,0.00,weatherlink.com 1.10,2013-04-09 21:46:00,
2013-04-10 01:01:00,57.1,49.0,29.99,South,191,0.0,2.0,73,0.00,,,0.00,weatherlink.com 1.10,2013-04-09 22:01:00,
2013-04-10 01:16:00,56.6,48.0,29.99,South,188,0.0,2.0,74,0.00,,,0.00,weatherlink.com 1.10,2013-04-09 22:16:00,
2013-04-10 01:31:00,56.9,49.0,29.99,WNW,303,0.0,2.0,74,0.00,,,0.00,weatherlink.com 1.10,2013-04-09 22:31:00,
2013-04-10 01:47:00,56.6,48.0,29.99,NW,321,0.0,2.0,74,0.00,,,0.00,weatherlink.com 1.10,2013-04-09 22:47:00,
2013-04-10 02:01:00,56.4,49.0,29.98,NW,304,0.0,0.0,75,0.00,,,0.00,weatherlink.com 1.10,2013-04-09 23:01:00,
2013-04-10 02:17:00,56.7,49.0,29.97,NW,304,0.0,1.0,74,0.00,,,0.00,weatherlink.com 1.10,2013-04-09 23:17:00,
2013-04-10 02:31:00,55.8,48.0,29.97,South,188,0.0,3.0,76,0.00,,,0.00,weatherlink.com 1.10,2013-04-09 23:31:00,
2013-04-10 02:46:00,55.9,49.0,29.97,South,188,0.0,1.0,77,0.00,,,0.00,weatherlink.com 1.10,2013-04-09 23:46:00,
2013-04-10 03:02:00,55.6,49.0,29.96,South,188,0.0,0.0,78,0.00,,,0.00,weatherlink.com 1.10,2013-04-10 00:02:00,
2013-04-10 03:17:00,55.5,49.0,29.96,South,178,0.0,1.0,78,0.00,,,0.00,weatherlink.com 1.10,2013-04-10 00:17:00,
2013-04-10 03:32:00,55.3,49.0,29.96,South,178,0.0,0.0,79,0.00,,,0.00,weatherlink.com 1.10,2013-04-10 00:32:00,
2013-04-10 03:47:00,55.2,49.0,29.96,South,178,0.0,0.0,79,0.00,,,0.00,weatherlink.com 1.10,2013-04-10 00:47:00,
2013-04-10 04:02:00,54.6,49.0,29.96,South,178,0.0,0.0,81,0.00,,,0.00,weatherlink.com 1.10,2013-04-10 01:02:00,
2013-04-10 04:17:00,54.7,49.0,29.96,South,178,0.0,0.0,80,0.00,,,0.00,weatherlink.com 1.10,2013-04-10 01:17:00,
2013-04-10 04:32:00,54.8,48.0,29.96,South,178,0.0,2.0,79,0.00,,,0.00,weatherlink.com 1.10,2013-04-10 01:32:00,
2013-04-10 04:47:00,54.5,49.0,29.96,South,190,0.0,5.0,81,0.00,,,0.00,weatherlink.com 1.10,2013-04-10 01:47:00,
2013-04-10 05:02:00,54.4,49.0,29.96,South,190,0.0,0.0,82,0.00,,,0.00,weatherlink.com 1.10,2013-04-10 02:02:00,
2013-04-10 05:17:00,54.3,49.0,29.96,SSE,168,0.0,2.0,82,0.00,,,0.00,weatherlink.com 1.10,2013-04-10 02:17:00,
2013-04-10 05:32:00,54.3,49.0,29.96,SSE,168,0.0,1.0,82,0.00,,,0.00,weatherlink.com 1.10,2013-04-10 02:32:00,
2013-04-10 05:47:00,54.1,49.0,29.96,South,190,0.0,2.0,84,0.00,,,0.00,weatherlink.com 1.10,2013-04-10 02:47:00,
2013-04-10 06:02:00,54.1,49.0,29.96,South,190,0.0,0.0,83,0.00,,,0.00,weatherlink.com 1.10,2013-04-10 03:02:00,
2013-04-10 06:17:00,54.0,49.0,29.96,South,190,0.0,1.0,84,0.00,,,0.00,weatherlink.com 1.10,2013-04-10 03:17:00,
2013-04-10 06:32:00,54.0,49.0,29.95,SSE,158,0.0,2.0,84,0.00,,,0.00,weatherlink.com 1.10,2013-04-10 03:32:00,
2013-04-10 06:47:00,53.9,49.0,29.95,East,101,0.0,3.0,83,0.00,,,0.00,weatherlink.com 1.10,2013-04-10 03:47:00,
2013-04-10 07:02:00,54.1,48.0,29.95,NE,34,0.0,4.0,81,0.00,,,0.00,weatherlink.com 1.10,2013-04-10 04:02:00,
2013-04-10 07:17:00,54.8,48.0,29.96,North,350,0.0,3.0,77,0.00,,,0.00,weatherlink.com 1.10,2013-04-10 04:17:00,
2013-04-10 07:32:00,54.8,47.0,29.96,North,5,1.0,3.0,76,0.00,,,0.00,weatherlink.com 1.10,2013-04-10 04:32:00,
2013-04-10 07:47:00,54.9,47.0,29.96,North,5,0.0,2.0,76,0.00,,,0.00,weatherlink.com 1.10,2013-04-10 04:47:00,
2013-04-10 08:02:00,55.7,47.0,29.96,NE,56,2.0,5.0,73,0.00,,,0.00,weatherlink.com 1.10,2013-04-10 05:02:00,
2013-04-10 08:17:00,57.1,47.0,29.96,NNE,29,1.0,2.0,70,0.00,,,0.00,weatherlink.com 1.10,2013-04-10 05:17:00,
2013-04-10 08:32:00,57.7,47.0,29.97,North,5,0.0,3.0,68,0.00,,,0.00,weatherlink.com 1.10,2013-04-10 05:32:00,
2013-04-10 08:47:00,58.4,48.0,29.97,North,355,0.0,3.0,68,0.00,,,0.00,weatherlink.com 1.10,2013-04-10 05:47:00,
2013-04-10 09:02:00,58.8,47.0,29.97,North,355,0.0,1.0,65,0.00,,,0.00,weatherlink.com 1.10,2013-04-10 06:02:00,
2013-04-10 09:17:00,59.2,47.0,29.97,North,351,2.0,2.0,65,0.00,,,0.00,weatherlink.com 1.10,2013-04-10 06:17:00,
2013-04-10 09:32:00,59.6,48.0,29.97,SW,219,0.0,4.0,65,0.00,,,0.00,weatherlink.com 1.10,2013-04-10 06:32:00,
2013-04-10 09:47:00,60.2,48.0,29.97,SW,236,5.0,5.0,65,0.00,,,0.00,weatherlink.com 1.10,2013-04-10 06:47:00,
2013-04-10 10:02:00,60.1,49.0,29.98,West,261,0.0,6.0,66,0.00,,,0.00,weatherlink.com 1.10,2013-04-10 07:02:00,
2013-04-10 10:17:00,60.6,49.0,29.98,SW,227,0.0,3.0,66,0.00,,,0.00,weatherlink.com 1.10,2013-04-10 07:17:00,
2013-04-10 10:32:00,61.3,49.0,29.98,South,184,0.0,6.0,64,0.00,,,0.00,weatherlink.com 1.10,2013-04-10 07:32:00,
2013-04-10 10:47:00,61.1,49.0,29.98,SW,215,1.0,4.0,64,0.00,,,0.00,weatherlink.com 1.10,2013-04-10 07:47:00,
2013-04-10 11:02:00,62.2,50.0,29.98,SSW,208,0.0,5.0,64,0.00,,,0.00,weatherlink.com 1.10,2013-04-10 08:02:00,
2013-04-10 11:17:00,61.9,49.0,29.97,SSW,207,0.0,5.0,64,0.00,,,0.00,weatherlink.com 1.10,2013-04-10 08:17:00,
2013-04-10 11:32:00,63.3,50.0,29.97,SW,217,1.0,4.0,63,0.00,,,0.00,weatherlink.com 1.10,2013-04-10 08:32:00,
2013-04-10 11:47:00,63.6,49.0,29.97,SW,223,0.0,6.0,59,0.00,,,0.00,weatherlink.com 1.10,2013-04-10 08:47:00,
2013-04-10 12:02:00,64.6,47.0,29.96,SW,236,1.0,3.0,54,0.00,,,0.00,weatherlink.com 1.10,2013-04-10 09:02:00,
2013-04-10 12:17:00,64.7,46.0,29.96,West,269,0.0,4.0,51,0.00,,,0.00,weatherlink.com 1.10,2013-04-10 09:17:00,
2013-04-10 12:32:00,65.6,46.0,29.96,WSW,247,0.0,6.0,49,0.00,,,0.00,weatherlink.com 1.10,2013-04-10 09:32:00,
2013-04-10 12:47:00,66.0,45.0,29.95,SW,230,3.0,3.0,47,0.00,,,0.00,weatherlink.com 1.10,2013-04-10 09:47:00,
2013-04-10 13:02:00,66.6,46.0,29.95,NW,311,4.0,6.0,48,0.00,,,0.00,weatherlink.com 1.10,2013-04-10 10:02:00,
2013-04-10 13:17:00,66.7,47.0,29.95,South,191,0.0,5.0,49,0.00,,,0.00,weatherlink.com 1.10,2013-04-10 10:17:00,
2013-04-10 13:32:00,66.5,45.0,29.95,SW,220,3.0,6.0,46,0.00,,,0.00,weatherlink.com 1.10,2013-04-10 10:32:00,
2013-04-10 13:47:00,66.4,49.0,29.94,WSW,239,5.0,7.0,54,0.00,,,0.00,weatherlink.com 1.10,2013-04-10 10:47:00,
2013-04-10 14:02:00,65.7,49.0,29.94,SW,236,0.0,8.0,55,0.00,,,0.00,weatherlink.com 1.10,2013-04-10 11:02:00,
2013-04-10 14:17:00,65.5,50.0,29.94,South,191,4.0,7.0,57,0.00,,,0.00,weatherlink.com 1.10,2013-04-10 11:17:00,
2013-04-10 14:32:00,63.7,51.0,29.94,SW,227,8.0,12.0,63,0.00,,,0.00,weatherlink.com 1.10,2013-04-10 11:32:00,
2013-04-10 14:47:00,64.1,51.0,29.93,SW,219,5.0,10.0,63,0.00,,,0.00,weatherlink.com 1.10,2013-04-10 11:47:00,
2013-04-10 15:02:00,63.8,51.0,29.93,SW,226,5.0,11.0,63,0.00,,,0.00,weatherlink.com 1.10,2013-04-10 12:02:00,
2013-04-10 15:17:00,64.5,51.0,29.92,SW,232,8.0,11.0,62,0.00,,,0.00,weatherlink.com 1.10,2013-04-10 12:17:00,
2013-04-10 15:32:00,64.0,49.0,29.92,SSW,193,2.0,12.0,58,0.00,,,0.00,weatherlink.com 1.10,2013-04-10 12:32:00,
2013-04-10 15:47:00,64.1,48.0,29.91,South,183,1.0,11.0,56,0.00,,,0.00,weatherlink.com 1.10,2013-04-10 12:47:00,
2013-04-10 16:03:00,64.7,48.0,29.91,SSW,200,5.0,12.0,55,0.00,,,0.00,weatherlink.com 1.10,2013-04-10 13:03:00,
2013-04-10 16:18:00,64.0,47.0,29.91,SSW,207,8.0,9.0,55,0.00,,,0.00,weatherlink.com 1.10,2013-04-10 13:18:00,
2013-04-10 16:33:00,64.0,49.0,29.91,SSW,211,5.0,11.0,58,0.00,,,0.00,weatherlink.com 1.10,2013-04-10 13:33:00,
2013-04-10 16:48:00,63.6,50.0,29.90,SSW,194,4.0,11.0,61,0.00,,,0.00,weatherlink.com 1.10,2013-04-10 13:48:00,
2013-04-10 17:03:00,64.1,49.0,29.90,SSW,208,6.0,11.0,58,0.00,,,0.00,weatherlink.com 1.10,2013-04-10 14:03:00,
2013-04-10 17:18:00,63.2,47.0,29.90,SW,232,7.0,11.0,55,0.00,,,0.00,weatherlink.com 1.10,2013-04-10 14:18:00,
2013-04-10 17:33:00,62.6,49.0,29.91,SW,235,3.0,15.0,62,0.00,,,0.00,weatherlink.com 1.10,2013-04-10 14:33:00,
2013-04-10 17:48:00,62.5,47.0,29.90,SSW,211,9.0,14.0,58,0.00,,,0.00,weatherlink.com 1.10,2013-04-10 14:48:00,
2013-04-10 18:03:00,62.4,49.0,29.91,SSE,168,2.0,14.0,62,0.00,,,0.00,weatherlink.com 1.10,2013-04-10 15:03:00,
2013-04-10 18:18:00,61.8,48.0,29.91,SSW,206,6.0,11.0,61,0.00,,,0.00,weatherlink.com 1.10,2013-04-10 15:18:00,
2013-04-10 18:33:00,62.0,47.0,29.90,SSW,194,3.0,11.0,58,0.00,,,0.00,weatherlink.com 1.10,2013-04-10 15:33:00,
2013-04-10 18:48:00,62.2,47.0,29.90,SSE,160,3.0,12.0,59,0.00,,,0.00,weatherlink.com 1.10,2013-04-10 15:48:00,
2013-04-10 19:03:00,62.0,48.0,29.90,SSW,207,3.0,8.0,61,0.00,,,0.00,weatherlink.com 1.10,2013-04-10 16:03:00,
2013-04-10 19:18:00,61.7,50.0,29.91,SSW,207,4.0,10.0,65,0.00,,,0.00,weatherlink.com 1.10,2013-04-10 16:18:00,
2013-04-10 19:33:00,61.6,49.0,29.91,SSW,209,4.0,8.0,63,0.00,,,0.00,weatherlink.com 1.10,2013-04-10 16:33:00,
2013-04-10 19:48:00,61.0,49.0,29.91,South,186,2.0,7.0,66,0.00,,,0.00,weatherlink.com 1.10,2013-04-10 16:48:00,
2013-04-10 20:03:00,60.6,50.0,29.91,SSW,200,0.0,9.0,69,0.00,,,0.00,weatherlink.com 1.10,2013-04-10 17:03:00,
2013-04-10 20:18:00,59.9,50.0,29.92,SSW,211,2.0,9.0,71,0.00,,,0.00,weatherlink.com 1.10,2013-04-10 17:18:00,
2013-04-10 20:33:00,59.9,49.0,29.92,SSW,213,3.0,6.0,68,0.00,,,0.00,weatherlink.com 1.10,2013-04-10 17:33:00,
2013-04-10 20:48:00,59.8,48.0,29.92,SSW,198,0.0,5.0,65,0.00,,,0.00,weatherlink.com 1.10,2013-04-10 17:48:00,
2013-04-10 21:03:00,59.8,48.0,29.93,South,173,0.0,3.0,65,0.00,,,0.00,weatherlink.com 1.10,2013-04-10 18:03:00,
2013-04-10 21:18:00,59.9,47.0,29.93,South,173,0.0,3.0,63,0.00,,,0.00,weatherlink.com 1.10,2013-04-10 18:18:00,
2013-04-10 21:33:00,59.8,47.0,29.93,SSW,197,0.0,5.0,63,0.00,,,0.00,weatherlink.com 1.10,2013-04-10 18:33:00,
2013-04-10 21:48:00,59.4,47.0,29.94,SSW,192,2.0,4.0,64,0.00,,,0.00,weatherlink.com 1.10,2013-04-10 18:48:00,
2013-04-10 22:03:00,59.5,47.0,29.94,SSW,207,0.0,4.0,64,0.00,,,0.00,weatherlink.com 1.10,2013-04-10 19:03:00,
2013-04-10 22:18:00,60.0,48.0,29.93,SW,219,0.0,4.0,64,0.00,,,0.00,weatherlink.com 1.10,2013-04-10 19:18:00,
2013-04-10 22:33:00,59.3,47.0,29.93,SSW,192,3.0,6.0,65,0.00,,,0.00,weatherlink.com 1.10,2013-04-10 19:33:00,
2013-04-10 22:48:00,59.5,48.0,29.93,SW,217,0.0,5.0,66,0.00,,,0.00,weatherlink.com 1.10,2013-04-10 19:48:00,
2013-04-10 23:03:00,59.3,48.0,29.93,SSW,207,3.0,5.0,67,0.00,,,0.00,weatherlink.com 1.10,2013-04-10 20:03:00,
2013-04-10 23:18:00,59.2,48.0,29.93,SSE,167,0.0,3.0,66,0.00,,,0.00,weatherlink.com 1.10,2013-04-10 20:18:00,
2013-04-10 23:33:00,59.3,46.0,29.93,WSW,240,0.0,3.0,62,0.00,,,0.00,weatherlink.com 1.10,2013-04-10 20:33:00,
2013-04-10 23:48:00,58.7,46.0,29.93,SW,217,0.0,3.0,63,0.00,,,0.00,weatherlink.com 1.10,2013-04-10 20:48:00,